www.pogodaiklimat.ru

Погода и климат >> Архив погоды >> Мексика >> Tampico


ПОГОДА в Tampico

  • Прогноз погоды в Tampico
  • Монитор погоды в Tampico
  • Климат города

АРХИВ ПОГОДЫ в Tampico

Время (UTC), дата Ветер
(напр.,м/с)
 
Видим.   Явления Облачность Т
(С)
Тd
(С)
f
(%)
Тe
(С)
Тes
(С)
Комфортность P
(гПа)
Po
(гПа)
Тmin
(С)
Tmax
(С)
R
(мм)
R24
(мм)
S
(см)
06 8.12 ЮВ 1 10 км 6/3 400 м
[Sc diur, vesp Ac trans]
+22.2 +21.0 93 +29 +29 очень
душно
1018.7 1017.7 +29.0
09 8.12 З 1 10 км 6/3 400 м
[Sc diur, vesp Ac trans]
+22.0 +21.7 98 +29 +29 очень
душно
1017.9 1016.9
12 8.12 СВ 1 10 км в посл. час морось 9/4 300 м
[Sc diur, vesp Ac As]
+22.4 +22.1 98 +30 +30 очень
душно
1017.5 1016.5 1
15 8.12 СВ 3 20 км гроза без осадков 4/3 400 м
[Sc diur, vesp Ac trans]
+19.8 +18.6 93 +23 +25 комфорт 1019.1 1018.1
18 8.12 СВ 3 22 км {гроза} 5/1 400 м
[Sc diur, vesp Ac trans]
+22.2 +19.6 85 +28 +34 душно 1018.7 1017.7 +19.4 +23.0
21 8.12 С 7 24 км 10/5 400 м
[Sc diur, vesp Ac trans]
+21.6 +17.4 77 +26 +26 душно 1016.8 1015.8
00 9.12 С 7 22 км 10/8 300 м
[Sc diur, vesp Ac trans]
+19.2 +15.1 77 +20 +20 1017.7 1016.7 +19.0 +23.5
03 9.12 С 8 10 км слабая морось 10/8 400 м
[Sc diur, vesp Ac trans]
+17.2 +14.3 83 +16 +16 1021.7 1020.7 0.0
06 9.12 С 8 10 км слабая морось 10/8 300 м
[Sc diur, vesp Ac trans]
+15.8 +13.8 88 +14 +14 1024.3 1023.3 0.2
09 9.12 С 8 10 км {морось} 10/8 400 м
[Sc diur, vesp Ac trans]
+15.6 +12.9 84 +14 +14 1023.7 1022.7 0.5
12 9.12 С 7 10 км {морось} 10/8 300 м
[Sc diur, vesp Ac trans]
+15.4 +11.7 79 +14 +14 1024.3 1023.3 0.5
15 9.12 С 5 25 км 10/3 400 м
[Sc diur, vesp Ac As]
+15.4 +10.4 72 +14 +14 1027.0 1026.0
18 9.12 С 7 25 км 10/3 400 м
[Sc diur, vesp Ac As]
+18.2 +11.8 66 +18 +18 1027.3 1026.3 +14.6 +18.4
21 9.12 СВ 5 25 км 10/4 400 м
[Sc diur, vesp Ac As]
+19.6 +12.7 64 +21 +21 комфорт 1025.6 1024.6
00 10.12 СВ 5 25 км 10/8 300 м
[Sc diur, vesp Ac trans]
+17.2 +13.3 78 +17 +17 1026.8 1025.8 +16.8 +19.8
03 10.12 С 4 10 км 9/4 400 м
[Sc diur, vesp Ac trans]
+16.8 +11.0 69 +16 +16 1028.6 1027.6
06 10.12 С 3 10 км 9/4 400 м
[Sc diur, vesp Ac As]
+16.6 +11.1 70 +16 +16 1028.9 1027.9 +19.8
09 10.12 С 3 10 км 9/3 400 м
[Sc diur, vesp Ac trans]
+16.0 +10.4 69 +16 +16 1027.9 1026.9
12 10.12 С 3 10 км 8/4 400 м
[Sc diur, vesp Ac trans]
+15.0 +8.9 67 +14 +14 1028.5 1027.5 +14.6 +19.8
15 10.12 С 4 22 км 9/4 400 м
[Sc diur, vesp Ac trans]
+14.4 +8.6 68 +13 +14 1030.4 1029.4
18 10.12 С 4 24 км 9/3 400 м
[Sc diur, vesp Ac trans]
+17.8 +10.2 61 +18 +20 1030.4 1029.4 +14.0
21 10.12 СВ 6 25 км 8/0 2000 м
[Ac trans]
+19.4 +8.4 49 +20 +21 1028.7 1027.7
00 11.12 В 1 24 км 5/0 2000 м
[Ac trans]
+17.0 +7.9 55 +18 +18 1029.4 1028.4 +14.0 +20.5
03 11.12 В 1 10 км 1/0 2000 м
[Ac trans]
+13.8 +8.7 71 +14 +14 1030.9 1029.9
06 11.12 СВ 2 10 км 4/0
[Ac trans]
+14.2 +11.1 82 +14 +14 1030.7 1029.7 +20.5
09 11.12 СВ 3 10 км 5/0 1500 м
[Ac trans]
+14.2 +8.4 68 +13 +13 1029.8 1028.8
12 11.12 С 3 10 км ясно +13.4 +9.4 77 +12 +12 1029.8 1028.8 +13.0 +20.5
15 11.12 СЗ 2 25 км 9/0 2000 м
[Ac trans]
+15.2 +10.7 74 +15 +16 1031.6 1030.6
18 11.12 С 1 25 км 10/0 2000 м
[Ac trans]
+21.2 +15.6 70 +24 +29 комфорт 1029.9 1028.9 +12.6 +22.0
21 11.12 З 1 25 км 10/0 2000 м
[Ac trans]
+23.4 +13.9 55 +27 +30 душно 1025.6 1024.6
00 12.12 В 1 22 км 9/0 2000 м
[Ac trans]
+21.4 +14.1 63 +24 +24 комфорт 1025.2 1024.2 +12.6 +24.2
03 12.12 В 2 10 км 8/0 2000 м
[Ac trans]
+18.8 +14.3 75 +20 +20 1025.8 1024.8
06 12.12 штиль 0 10 км 6/0
[Ac trans]
+18.0 +14.1 78 +18 +18 1024.9 1023.9 +24.2
09 12.12 штиль 0 10 км 6/0
[Ac trans]
+17.4 +14.2 81 +17 +17 1022.1 1021.1
12 12.12 штиль 0 10 км 6/0 2000 м
[Ac trans]
+16.4 +14.5 89 +16 +16 1020.8 1019.8 +16.0 +24.2
15 12.12 З 1 24 км 8/0 2000 м
[Ac trans Ci]
+18.2 +15.0 82 +20 +22 1021.1 1020.1
18 12.12 З 2 24 км 6/0 2000 м
[Ac trans Ci]
+23.4 +18.7 75 +30 +37 очень
душно
1019.7 1020.0 +15.4 +23.8
21 12.12 З 4 22 км 9/0
[Ci]
+25.8 +18.4 64 +31 +34 очень
душно
1015.1 1014.1
00 13.12 З 5 22 км 8/0
[Ci]
+23.0 +17.9 73 +28 +28 душно 1013.4 1012.4 +15.4 +27.2
03 13.12 ЮВ 3 10 км 8/0
[Ci]
+19.2 +16.1 82 +21 +21 комфорт 1014.5 1013.5
06 13.12 ЮВ 4 10 км 5/0
[Ac trans Ci]
+20.2 +18.4 89 +24 +24 комфорт 1014.6 1013.6 +27.2
09 13.12 В 3 10 км 3/0
[Ac trans Ci]
+19.4 +17.6 89 +22 +22 комфорт 1013.0 1012.0
12 13.12 В 2 10 км 8/0 1500 м
[Ac trans]
+19.0 +17.5 91 +21 +21 комфорт 1011.4 1010.4 +18.6 +27.2
15 13.12 ЮВ 1 22 км 8/0 1500 м
[Ac trans]
+19.4 +17.6 89 +23 +24 комфорт 1012.6 1011.6
18 13.12 ЮВ 2 22 км 6/0 1500 м
[Ac trans Ci]
+25.4 +21.1 77 +32 +40 очень
душно
1011.4 1010.4 +18.4 +26.0
21 13.12 В 2 22 км 10/0 1500 м
[Ac trans Ci]
+25.4 +17.0 60 +29 +33 душно 1009.4 1008.4
00 14.12 СВ 3 20 км 9/0 1500 м
[Ac trans Ci]
+23.0 +18.2 74 +29 +29 очень
душно
1010.0 1009.0 +18.4 +28.0
03 14.12 С 2 10 км 3/0 1500 м
[Ac trans]
+19.8 +17.0 84 +23 +23 комфорт 1013.7 1012.7
06 14.12 С 3 10 км 4/4 400 м
[Cu med, cong]
+20.2 +11.2 56 +24 +24 комфорт 1017.2 1016.2 +28.0
09 14.12 С 7 10 км 5/0 2000 м
[Ac trans]
+17.0 +5.2 46 +16 +16 1019.0 1018.0
12 14.12 С 6 10 км 9/0 2000 м
[Ac trans]
+16.2 +3.5 43 +15 +15 1020.6 1019.6 +15.8 +28.0
15 14.12 С 5 24 км 9/0 2000 м
[Ac trans]
+16.0 +2.1 39 +15 +16 1024.0 1023.0
18 14.12 С 5 24 км 6/0
[Ci]
+21.0 +8.8 46 +23 +27 комфорт 1024.3 1023.3 +15.6 +22.0
21 14.12 В 2 22 км 5/0
[Ci]
+22.8 +6.2 34 +23 +29 комфорт 1021.9 1020.9
00 15.12 В 3 22 км 8/0
[Ci]
+19.0 +4.5 38 +20 +20 1023.1 1022.1 +15.6 +23.5

 

Местоположение метеостанции Tampico (Мексика): широта 22.20 долгота -97.85 высота над уровнем моря 25 м.

В архиве по умолчанию представлена погода в Tampico за последнюю неделю. Архивные данные за месяц целиком и за предыдущие месяцы, начиная с января 2011 года, Вы можете получить, выбрав интересующий диапазон дат из раскрывающегося списка и нажав кнопку "Ввод!".


*Определитесь, кто Вы:
робот инопланетянин человек

Внимание! Время в таблицах - всемирное. Для получения местного времени необходимо прибавить поправку, которая в Tampico равна -6 ч.

Смотрите также архив погоды в соседних городах и на ближайших метеорологических станциях:

Погода в Tamuin (Мексика) (96 км)
Погода в Matlapa (Мексика) (139 км)
Погода в Tuxpan (Мексика) (147 км)
Погода в Soto La Marina (Мексика) (178 км)
Погода в Ciudad Victoria (Мексика) (215 км)
Погода в Rio Verde (Мексика) (222 км)
Погода в Tulancingo (Мексика) (242 км)
Погода в Pachuca (Мексика) (248 км)
Погода в Jalapa (Мексика) (311 км)
Погода в San Luis Potosi (Мексика) (314 км)

Пояснения к столбцам:

Ветер - указаны скорость ветра в м/с - средняя за 10 мин, порывы в срок и между сроками (в фигурных скобках) и направление, откуда дует ветер: С - северный, СВ - северо-восточный, В - восточный, ЮВ - юго-восточный, Ю - южный, ЮЗ - юго-западный, З - западный, СЗ - северо-западный.
Видимость - горизонтальная дальность видимости в метрах или километрах. При видимости от 1 до 10 км при отсутствии осадков обычно наблюдается дымка, при ухудшении видимости до 1 км и менее - туман. В сухую погоду видимость может ухудшаться дымом, пылью или мглою.
Явления - указаны атмосферные явления, наблюдавшиеся в срок или в последний час перед сроком; фигурными скобками обозначены явления, наблюдавшиеся между сроками (за 1-3 часа до срока); квадратными скобками обозначены град или гололедные отложения с указанием их диаметра в мм.
Облачность - указаны через наклонную черту общая и нижняя облачность в баллах и высота нижней границы облаков в метрах; квадратными скобками обозначены формы облаков: Ci - перистые, Cs - перисто-слоистые, Cc - перисто-кучевые, Ac - высококучевые, As - высокослоистые, Sc - слоисто-кучевые, Ns - слоисто-дождевые, Cu - кучевые, Cb - кучево-дождевые. Подробнее классификацию облаков см. в Атласе облаков (PDF).
T - Температура воздуха - температура, измеренная на высоте 2 м над землей.
Td - Температура точки росы - температура, при понижении до которой содержащийся в воздухе водяной пар достигнет насыщения.
f - Относительная влажность воздуха - влажноcть воздуха, измеренная на высоте 2 м над землей.
Te - Эффективная температура - температура, которую ощущает одетый по сезону человек в тени. Характеристика душности погоды. При расчете учитывается влияние влажности воздуха и скорости ветра на теплоощущения человека.
Tes - Эффективная температура на солнце - температура, которую ощущает человек, с поправкой на солнечный нагрев. Характеристика знойности погоды. Зависит от высоты солнца над горизонтом, облачности и скорости ветра. Ночью, в пасмурную погоду, а также при ветре 12 м/с и более поправка равна нулю.
P - Атмосферное давление - приведенное к уровню моря атмосферное давление.
Po - Атмосферное давление - измеренное на уровне метеостанции атмосферное давление.
Tmin - Минимальная температура - минимум температуры воздуха на высоте 2 м над землей.
Tmax - Максимальная температура - максимум температуры воздуха на высоте 2 м над землей.
R - Количество осадков - Количество выпавших осадков за период времени, мм. При наведении курсора мыши на число - период времени, за который выпало указанное количество осадков.
R24 - Количество осадков - Количество выпавших осадков за 24 часа, мм.
S - Снежный покров - Высота снежного покрова, см. При наведении курсора мыши на число - состояние снежного покрова и степень покрытия местности в баллах.